Wind_Speed
40 41 39 35 33 33 32 30 30 32 34 35 37 38 36 33 33 36 38 38 38 38 38 39 39 37 37 36 36 36 34 32 32 33 35 36 35 31 25 17 16 17 15 12 9 7 6 7 7 6 7 8 10 8 8 12 10 5 1 2 4 4 4 4 3 4 7 7 6 13 13 8 7 5 6 6 6 8 10 9 9 8 7 9 11 13 15 20
40 40 38 36 34 33 32 31 31 32 34 35 38 38 35 33 31 32 36 38 37 37 37 38 38 38 37 37 36 35 33 32 31 34 36 34 33 34 30 20 17 16 13 11 9 7 7 8 8 7 8 7 9 9 8 11 10 5 2 2 4 2 2 6 8 7 6 10 9 12 11 7 10 10 8 5 6 10 9 9 10 9 9 11 13 14 14 18
40 40 38 36 34 34 33 32 33 34 35 35 38 39 35 33 31 30 32 36 37 36 36 36 37 38 37 38 37 34 32 28 30 37 38 32 31 35 33 25 20 16 14 12 7 6 8 9 8 8 9 8 9 11 8 8 8 8 6 2 3 3 7 11 13 10 9 13 12 11 7 6 11 12 9 6 8 9 7 11 13 11 12 13 14 14 14 18
40 40 39 37 34 35 34 34 34 35 35 36 39 39 35 34 33 29 30 34 35 36 36 36 37 37 37 38 37 34 30 22 26 40 38 30 32 36 36 30 21 16 16 14 7 7 10 10 9 9 10 9 11 12 8 9 8 7 6 2 2 5 6 8 12 11 10 12 13 12 8 7 9 9 8 6 7 6 6 13 16 15 16 16 16 15 15 18
40 40 41 38 35 36 36 35 35 36 36 37 39 38 35 34 33 30 29 31 33 34 36 36 35 36 36 37 36 34 28 12 16 35 35 28 31 34 36 31 21 17 17 14 10 9 11 12 12 11 9 8 10 11 8 13 11 3 2 1 6 6 6 4 9 11 9 10 14 13 8 8 8 7 8 6 3 2 2 9 10 13 18 15 16 15 15 19
40 41 41 37 36 37 38 37 35 36 36 37 38 38 34 33 32 30 30 31 30 32 36 36 34 34 35 36 36 34 29 8 3 25 34 27 29 31 31 27 20 18 17 14 11 9 11 14 13 12 10 7 9 8 9 17 14 4 2 3 7 7 7 5 8 10 8 9 12 11 8 11 9 6 8 5 3 5 5 7 7 9 15 14 13 13 14 17
41 42 42 39 38 38 38 37 35 36 37 37 38 37 34 32 33 31 30 32 32 31 33 35 33 33 35 35 34 33 34 15 3 17 32 26 27 29 25 21 19 20 19 16 14 12 13 15 13 13 10 6 8 9 13 18 15 7 2 6 4 8 9 6 9 11 9 7 9 9 9 10 8 5 7 4 4 4 3 5 8 12 13 11 10 11 11 12
41 42 43 40 39 39 39 38 35 36 38 38 37 36 33 32 32 31 30 32 35 32 31 35 35 36 35 34 32 25 29 25 5 10 27 25 25 27 23 20 21 23 21 18 16 15 16 17 15 14 9 7 9 11 13 14 12 8 3 8 6 9 9 8 11 12 8 7 8 9 7 6 6 5 4 5 6 7 4 5 7 13 14 9 8 10 11 12
43 43 43 41 40 40 40 38 35 36 38 38 37 34 32 31 31 31 30 31 35 33 30 34 36 36 34 35 31 18 24 33 15 6 19 22 18 20 21 22 24 25 22 20 18 16 17 18 16 15 10 9 10 10 13 10 7 8 7 11 9 9 9 9 11 10 6 7 9 7 5 4 4 3 2 6 10 10 8 7 7 11 14 11 8 9 11 12
44 43 43 42 41 41 41 38 36 36 37 39 37 33 31 30 30 30 31 31 32 32 31 33 34 33 34 34 26 12 22 32 21 14 16 12 6 9 17 21 25 26 23 20 19 18 18 17 16 16 12 9 11 10 15 8 4 9 13 14 13 11 9 8 8 9 7 7 8 4 5 5 3 3 2 8 14 12 10 10 10 10 10 11 11 10 11 12
45 44 44 43 42 42 41 38 36 36 37 38 36 34 30 29 30 30 32 30 30 31 31 32 32 32 33 33 24 13 17 21 19 22 19 11 3 4 13 21 24 25 22 20 19 19 19 16 14 13 9 8 10 9 13 6 8 17 17 12 10 10 8 7 8 10 6 6 6 1 4 6 4 2 4 11 16 13 12 11 12 12 11 11 11 12 12 13
45 45 45 44 43 42 41 38 36 36 36 37 36 33 30 29 30 30 32 29 28 29 29 30 32 33 30 27 23 17 16 13 15 23 24 20 11 7 12 21 24 23 20 18 17 19 19 16 15 12 8 5 5 6 9 5 10 17 16 8 5 7 5 6 8 9 5 4 6 2 3 4 5 5 8 13 14 12 12 11 12 13 13 12 12 13 13 13
45 45 46 44 44 42 40 38 36 35 35 35 35 34 30 29 29 29 32 29 26 27 28 30 33 34 28 18 18 19 16 14 17 29 30 25 17 11 13 21 23 23 21 17 16 20 20 15 15 15 12 6 4 2 5 8 11 11 9 6 4 4 3 5 7 7 4 4 8 4 0 5 6 8 11 14 13 12 13 11 11 12 14 15 14 15 15 14
47 47 47 44 43 41 39 38 37 36 36 36 36 34 30 28 28 29 31 28 26 27 28 31 33 32 25 12 13 17 15 18 23 31 31 24 17 14 15 19 21 23 23 16 14 19 21 16 15 14 10 7 6 0 4 5 7 6 5 5 5 3 3 5 6 8 4 4 9 4 2 4 3 8 11 13 13 13 13 12 11 11 14 17 16 17 15 15
49 49 48 44 42 41 39 38 37 37 38 38 36 34 30 28 28 28 29 26 25 28 28 32 32 25 18 8 11 15 14 21 26 29 28 24 18 15 16 19 20 23 23 16 11 15 20 18 16 11 6 5 6 2 3 2 2 4 4 4 4 4 4 2 4 8 4 3 8 4 2 2 4 7 9 11 12 12 12 13 13 12 13 15 17 17 16 15
51 50 48 44 43 41 39 38 38 39 38 38 34 32 29 27 28 28 26 24 25 27 28 32 31 19 10 5 11 18 16 21 28 29 27 26 21 16 16 19 19 21 22 18 12 10 15 16 13 10 6 4 4 3 4 3 2 4 4 4 5 5 4 1 2 5 2 4 6 5 2 1 3 6 8 9 11 11 10 11 13 14 13 14 15 15 15 15
50 50 46 45 44 40 40 40 40 40 37 36 33 31 29 26 27 26 24 26 25 27 26 28 28 14 4 5 11 21 22 21 26 29 27 26 22 17 17 19 18 18 19 18 14 10 12 14 10 7 6 4 4 4 4 5 4 4 3 3 5 6 5 4 1 3 5 3 4 6 4 2 5 8 10 11 11 10 10 11 12 13 14 14 13 13 14 15
50 48 46 46 44 41 43 42 42 40 36 36 33 30 28 25 24 24 26 27 25 24 17 17 21 8 5 12 13 21 28 23 24 28 26 25 22 17 18 18 16 15 14 13 12 12 13 12 8 4 4 4 5 6 4 5 5 4 4 2 4 5 5 5 2 4 7 2 2 7 6 6 4 8 12 14 14 13 12 12 11 12 13 14 14 14 14 15
50 48 47 46 44 44 43 42 43 38 37 37 31 29 27 24 24 23 26 28 27 19 7 19 27 4 2 18 17 19 28 26 23 25 25 25 21 17 15 14 16 16 12 7 8 14 13 8 7 5 5 7 7 7 6 6 7 7 7 4 5 5 2 3 2 2 4 2 3 6 6 7 6 7 11 16 17 15 13 11 11 11 12 13 14 14 15 15
50 48 48 46 45 46 44 44 43 39 41 37 35 35 30 28 19 13 23 30 33 19 4 31 36 1 3 22 22 19 24 23 21 23 24 24 21 18 16 14 16 14 9 6 6 13 13 5 5 6 6 8 8 9 8 6 7 9 9 6 5 5 2 2 2 1 1 3 6 8 6 7 7 6 9 19 20 15 14 12 12 12 11 12 13 14 15 15
50 48 49 47 48 49 46 46 42 42 42 38 46 42 33 36 16 13 31 27 31 18 2 33 34 1 7 27 27 24 24 19 17 23 24 24 22 16 16 16 12 8 8 9 8 10 12 5 5 8 7 8 10 11 6 3 5 8 9 7 6 5 3 3 2 1 1 1 4 7 7 7 7 6 6 14 16 13 15 15 14 15 15 15 15 14 14 15
51 50 50 49 50 48 47 45 43 44 37 40 51 33 31 41 11 18 39 17 19 17 8 34 29 2 12 24 26 27 25 17 13 22 24 26 24 15 14 15 8 6 8 10 8 7 8 6 7 10 9 7 10 10 4 1 5 5 7 6 6 4 4 4 2 2 1 1 1 1 3 6 6 6 8 11 13 14 18 17 15 16 16 15 15 15 15 15
51 52 51 51 50 46 45 45 44 44 40 49 49 23 27 32 3 18 36 15 10 10 13 37 24 7 18 20 23 24 22 16 13 21 26 28 25 16 14 12 8 8 9 9 7 5 5 5 6 11 11 9 10 8 4 2 4 1 5 6 5 5 5 1 2 2 0 1 1 3 2 5 5 5 8 11 11 12 15 14 13 13 13 13 13 15 16 15
51 53 52 51 49 45 45 45 45 42 45 52 40 21 25 24 15 31 28 12 8 6 17 33 17 10 18 18 22 19 17 17 15 23 29 29 24 15 13 12 9 8 8 11 10 6 5 1 2 5 9 8 7 8 5 4 3 1 1 3 5 6 4 3 5 5 1 0 1 2 4 5 6 8 7 5 5 7 10 11 11 12 14 14 14 15 16 16
53 53 51 50 47 46 46 46 46 44 47 49 33 23 26 26 32 35 19 9 7 5 14 23 13 10 14 17 19 13 12 13 15 26 31 30 24 13 11 13 10 7 9 12 10 6 4 1 2 2 7 7 6 6 6 5 3 0 1 0 5 7 7 8 8 5 3 2 3 2 1 5 5 10 8 4 3 5 6 8 10 11 13 14 15 15 16 17
54 51 50 50 47 49 48 45 47 46 47 46 32 28 33 37 36 28 13 6 3 3 9 15 14 13 12 16 18 13 9 7 13 28 33 29 24 16 11 9 4 5 10 9 5 3 2 0 1 3 7 7 6 5 6 6 4 3 2 2 6 10 9 10 9 5 3 3 2 2 4 4 5 4 6 6 5 5 5 6 9 10 9 9 10 12 14 15
54 51 51 50 50 55 51 45 48 48 46 41 33 32 39 42 34 22 11 2 3 6 7 9 11 15 16 19 22 13 5 9 13 24 30 25 21 18 11 6 2 2 4 6 3 1 2 1 1 3 5 5 6 4 5 6 4 2 3 3 7 11 8 9 8 4 2 2 2 2 2 1 5 4 3 8 7 5 5 6 8 11 9 8 9 10 11 13
53 52 51 50 53 54 47 46 51 51 47 40 35 38 43 42 30 17 7 1 5 7 6 7 7 13 19 22 22 8 7 17 12 15 26 19 15 14 8 8 7 1 2 4 5 1 2 3 2 4 5 3 4 1 3 4 3 2 5 2 5 9 7 7 6 3 1 3 1 3 1 1 5 5 1 5 6 6 7 8 8 11 11 9 9 9 9 11
51 52 51 51 53 44 33 42 53 50 44 37 37 42 44 36 22 9 2 3 6 4 6 10 7 12 18 18 15 6 10 15 6 14 25 15 10 9 4 9 10 6 6 5 4 0 2 1 0 2 4 3 2 2 4 0 3 4 5 1 6 6 5 5 5 4 3 2 2 5 3 1 4 4 3 3 3 6 8 6 8 12 12 10 8 8 7 9
50 52 51 53 52 36 27 39 48 45 40 38 41 46 41 27 13 6 4 4 5 4 8 11 9 14 18 13 7 6 9 5 8 21 20 11 11 6 5 12 11 7 6 7 6 1 1 2 3 2 2 2 4 2 4 2 6 6 4 5 7 6 4 4 3 5 4 1 3 3 1 2 3 4 4 4 3 5 6 6 7 10 12 10 8 8 6 7
51 52 51 55 49 34 34 43 44 42 41 41 45 44 31 15 5 4 6 6 6 5 7 9 9 13 18 13 7 9 7 3 12 21 13 8 9 6 8 10 7 5 3 4 4 2 2 3 2 2 1 2 5 4 6 3 6 6 4 5 5 4 4 5 3 3 2 3 3 3 4 1 3 5 2 3 3 1 4 8 7 9 12 11 10 9 8 7
52 51 51 53 41 30 37 45 46 44 40 42 46 39 20 7 4 4 5 9 7 5 6 10 13 13 16 13 8 9 7 5 11 15 11 9 6 5 7 6 5 5 3 3 3 2 3 2 1 1 2 3 3 4 4 4 2 2 5 6 5 2 1 1 1 1 2 3 3 2 3 1 4 6 5 5 4 2 4 10 12 13 15 13 12 12 11 10
51 51 50 47 34 28 34 42 48 45 39 43 42 27 11 6 8 7 6 7 6 9 11 12 15 15 15 12 8 8 8 6 11 11 10 9 7 7 6 5 8 6 4 5 4 2 2 1 1 2 1 4 2 3 4 1 2 3 6 5 5 4 2 2 3 2 2 2 3 3 2 2 3 5 6 3 4 7 10 13 15 15 16 14 13 13 12 12
50 51 51 41 32 30 32 41 50 43 41 43 29 13 9 8 9 8 7 5 5 11 13 12 15 16 14 10 8 9 6 5 10 11 9 8 7 8 6 7 10 7 4 6 4 4 3 0 2 1 1 3 1 1 3 4 3 4 4 5 4 5 4 4 4 3 3 1 2 3 1 3 3 2 2 3 8 11 13 15 15 14 15 14 13 13 13 13
49 52 47 37 33 30 32 45 47 41 44 38 15 6 10 9 8 8 7 5 6 10 13 15 16 15 11 7 10 10 3 3 9 8 9 9 8 8 7 7 10 7 6 6 4 5 6 2 1 1 2 1 1 2 2 4 4 3 2 4 2 3 4 3 2 4 5 2 0 2 2 4 3 1 2 6 9 10 10 12 14 13 13 13 13 12 13 13
51 51 41 34 32 29 36 46 42 41 43 27 9 7 10 6 6 7 7 8 9 12 16 16 12 12 9 5 9 9 0 3 8 6 7 9 7 10 8 7 10 8 6 6 3 3 6 1 3 2 2 3 1 2 3 2 3 1 3 3 4 3 6 5 1 0 3 2 2 3 2 4 1 0 2 5 6 5 7 8 10 12 13 13 13 12 13 14
53 46 36 34 30 29 41 45 40 42 36 17 8 9 7 3 3 5 8 10 13 15 15 13 9 10 10 7 9 11 5 5 8 6 7 7 7 11 10 8 12 11 6 5 2 2 5 3 3 1 2 2 1 1 2 2 2 3 3 4 3 2 3 4 1 2 2 1 2 3 4 4 1 2 2 4 5 4 6 7 9 12 13 14 13 13 14 16
51 40 32 32 28 31 42 42 40 40 24 10 10 8 4 3 1 4 12 13 14 16 12 10 9 8 9 9 9 12 10 9 8 6 8 7 5 11 13 8 12 14 7 5 3 2 5 4 2 3 1 1 2 1 2 1 3 3 2 2 2 1 1 1 2 2 2 2 2 3 5 4 4 4 4 6 8 8 7 7 8 11 14 15 15 15 16 17
46 30 23 27 27 32 41 41 38 32 15 8 10 6 3 3 2 5 18 18 13 12 11 8 8 7 8 9 9 11 11 10 9 7 6 6 3 9 14 8 9 15 9 5 4 2 4 4 1 3 2 1 2 0 4 2 1 1 1 1 2 2 3 3 3 3 3 3 3 2 1 3 6 6 8 11 11 10 10 9 8 12 17 17 18 18 18 20
37 18 13 25 28 31 40 38 29 19 9 8 9 4 3 3 1 2 16 20 11 7 8 8 8 8 9 10 10 10 8 7 10 7 4 6 3 4 9 7 8 12 8 6 4 2 3 3 3 1 3 0 1 1 4 5 4 2 2 3 2 1 2 1 2 2 4 4 3 2 2 5 5 3 7 12 12 11 12 10 9 15 19 19 19 21 22 22
25 9 10 25 29 33 39 28 15 11 7 7 7 3 3 5 4 1 6 14 9 3 4 8 9 8 8 10 10 10 7 6 10 7 3 7 5 2 6 8 11 10 6 5 4 2 1 3 5 3 1 2 1 2 1 2 4 3 3 5 4 3 4 2 2 1 2 2 3 3 3 6 4 2 1 5 7 9 15 14 12 18 21 20 21 23 24 25
14 6 13 27 31 39 35 15 7 8 5 6 5 5 6 7 6 3 2 7 7 3 2 5 8 7 6 7 8 9 7 5 9 8 4 7 7 3 5 12 18 16 8 4 3 2 3 4 5 3 2 2 0 1 2 1 1 2 1 3 4 4 4 4 3 3 1 1 1 2 2 6 4 3 5 3 3 5 19 20 16 20 23 22 23 24 25 26
9 9 18 29 35 39 26 8 7 7 3 6 8 7 7 5 5 5 3 4 4 2 2 4 6 8 5 4 7 9 7 4 6 7 4 5 5 1 4 16 22 16 8 4 3 3 3 4 4 3 2 1 2 0 1 1 0 1 3 4 4 4 4 4 3 2 2 2 2 2 4 6 4 4 5 5 7 0 18 25 21 21 22 23 25 26 25 26
14 15 19 32 38 30 14 6 10 10 6 8 8 5 4 3 4 6 5 3 2 3 4 3 5 6 3 4 8 11 9 5 3 4 3 4 4 1 4 19 22 12 6 7 8 7 4 3 4 4 2 1 2 1 1 2 2 2 3 4 3 3 5 3 0 2 1 4 6 5 5 6 4 5 6 5 5 3 11 22 23 23 23 24 26 27 27 27
17 13 15 30 35 21 6 2 7 10 9 9 8 6 4 4 3 4 5 4 2 3 4 2 4 6 4 5 7 8 9 4 2 4 3 2 2 2 2 17 20 11 6 9 13 12 6 3 5 5 5 5 4 4 4 3 2 1 1 4 5 5 7 5 2 2 3 5 6 5 5 6 4 4 4 3 1 2 7 16 21 24 25 27 28 30 30 31
10 4 9 19 22 15 6 5 3 8 10 9 8 8 7 4 2 3 6 4 2 4 5 2 5 7 5 7 8 7 7 2 2 5 5 3 2 2 1 9 12 8 7 10 16 13 3 2 6 7 8 9 8 7 6 6 5 5 6 8 9 9 9 6 4 4 6 4 4 6 7 6 5 3 3 4 4 5 6 12 18 21 25 28 31 32 33 33
7 2 6 9 9 10 8 7 5 7 10 10 7 7 9 8 4 2 4 2 2 4 4 2 4 6 8 10 8 7 9 3 3 7 7 5 2 2 2 3 5 8 9 12 17 11 3 2 7 9 10 9 7 7 8 10 9 12 13 13 12 10 9 7 5 9 7 4 5 8 7 9 8 6 7 8 6 6 6 12 19 23 26 29 31 31 32 33
6 2 6 9 6 6 6 7 8 8 11 12 7 7 10 9 7 5 2 3 3 4 2 2 3 8 12 13 8 7 9 4 3 5 6 5 3 3 3 4 2 4 5 9 12 7 3 5 6 7 9 7 3 5 9 12 10 10 12 14 13 12 11 11 12 13 8 6 10 12 11 12 10 7 8 9 10 12 15 20 22 23 25 27 29 30 31 32
6 5 7 10 4 4 7 5 4 7 12 12 6 8 12 12 10 7 3 4 2 2 1 3 6 8 11 11 8 7 9 7 5 5 5 5 5 4 3 1 0 0 2 5 6 2 2 4 4 6 8 7 2 4 4 8 8 8 10 11 12 13 13 14 15 16 13 11 13 13 10 11 9 7 8 11 17 20 20 21 20 20 24 27 29 31 32 33
5 4 6 7 3 5 11 7 2 4 8 10 7 7 11 13 12 8 4 4 6 4 3 5 8 9 8 10 9 7 11 12 9 7 7 7 5 4 3 3 3 2 2 3 2 2 1 3 2 5 4 5 2 3 2 3 3 5 6 8 11 12 13 14 14 15 12 11 13 12 9 11 9 7 6 10 16 17 15 18 21 22 26 29 31 33 34 36
8 7 9 8 3 2 8 7 4 4 6 8 8 7 10 12 13 9 4 2 3 5 6 7 9 7 6 8 8 6 9 9 8 13 16 12 10 9 4 5 9 6 1 2 2 2 2 1 1 4 4 4 1 2 3 6 6 2 2 6 11 12 12 13 13 12 10 10 12 11 9 12 9 6 5 7 14 16 16 20 23 24 27 30 33 35 37 38
10 9 9 9 3 2 3 6 5 5 5 6 7 8 8 10 11 10 5 3 5 4 7 11 11 7 5 7 6 5 10 9 9 18 19 12 12 12 8 12 18 13 6 4 3 3 5 4 1 2 5 3 4 0 5 6 4 3 6 9 13 13 12 11 9 11 12 11 10 9 11 13 8 6 6 6 9 13 17 22 23 24 28 33 35 37 39 41
Wind_Direction
218 216 212 207 208 211 213 212 209 206 202 202 200 204 208 210 214 212 211 211 210 208 207 206 205 206 207 208 209 209 209 206 207 212 217 218 214 219 222 224 238 242 251 250 244 255 253 231 208 203 221 220 211 222 236 222 210 197 203 214 224 230 205 184 145 109 127 135 137 155 163 142 138 161 139 125 114 123 131 122 124 136 133 130 142 154 165 173
215 214 210 205 206 209 208 207 206 201 198 198 199 203 207 208 213 213 211 212 211 208 207 208 207 207 208 208 210 209 211 210 213 218 219 219 217 221 223 224 235 236 245 247 238 248 255 238 211 195 206 210 211 222 228 212 201 192 201 225 239 231 61 74 83 62 103 140 144 155 174 153 143 158 152 152 144 142 143 139 138 140 143 143 155 169 175 178
214 213 211 206 206 208 206 205 204 201 197 194 197 203 206 207 210 211 211 211 211 209 207 208 208 209 209 209 209 208 211 215 223 225 220 219 219 222 224 226 234 235 241 245 233 245 253 237 218 204 204 208 211 218 221 202 196 207 212 246 240 144 59 56 79 62 84 132 140 145 163 126 134 152 161 175 156 162 173 160 160 158 159 161 169 182 183 179
215 213 212 208 206 208 205 204 203 201 198 193 197 203 205 206 208 211 212 211 210 209 207 207 208 209 210 209 209 209 211 220 234 227 217 217 219 219 223 227 230 231 237 236 219 231 245 236 221 209 210 224 214 211 216 194 184 204 208 257 262 126 80 52 85 84 89 123 134 138 143 119 134 152 172 191 149 179 201 170 178 182 180 173 174 185 184 179
214 211 213 209 204 207 205 203 202 200 198 195 197 202 204 205 207 210 211 208 208 209 207 207 207 209 210 209 209 209 209 219 242 226 216 216 217 215 221 226 223 223 233 231 218 224 236 232 216 201 212 241 219 202 208 204 193 196 175 41 357 64 93 73 98 104 95 113 126 136 149 142 145 152 186 223 141 145 128 138 164 187 191 180 175 183 180 180
213 210 211 207 202 205 204 202 201 199 199 198 197 200 203 204 205 208 209 207 207 208 207 206 205 208 209 208 209 208 203 200 278 220 215 215 213 214 218 218 215 222 231 229 221 224 228 225 212 196 202 239 238 209 201 206 202 218 139 94 18 58 105 101 113 118 106 113 127 139 147 145 156 164 194 234 97 110 99 117 119 155 187 181 172 180 180 185
212 209 207 203 201 204 203 201 199 197 199 198 197 199 203 204 205 208 208 209 211 210 209 207 204 206 207 204 206 203 203 209 28 202 205 206 207 209 208 206 212 221 226 225 220 222 217 217 213 197 195 231 245 220 206 200 196 220 164 121 71 83 106 115 131 129 118 118 125 141 143 151 173 164 178 200 130 139 113 127 126 136 169 179 174 181 188 193
209 209 204 200 201 203 201 199 197 196 198 198 197 198 201 203 204 206 208 212 213 212 211 209 205 205 205 202 198 194 202 202 144 171 191 194 200 200 199 208 217 216 219 219 214 216 210 212 214 196 196 228 227 214 201 185 192 228 158 132 117 94 108 123 135 131 124 126 126 146 146 147 172 143 166 189 171 193 184 144 141 142 159 180 189 184 190 198
206 208 202 198 201 202 199 198 197 196 195 196 196 196 199 201 204 206 210 213 213 213 212 209 207 204 204 202 194 190 208 200 181 173 180 181 193 200 210 220 215 208 213 214 209 209 206 210 211 197 201 234 240 212 187 176 204 219 151 134 123 105 119 123 129 131 126 137 137 151 138 119 175 156 197 194 178 201 202 174 160 151 159 174 191 192 191 199
204 205 200 197 199 200 199 197 196 194 193 196 195 196 197 200 204 206 209 211 210 211 209 208 206 201 199 197 187 193 217 205 203 212 190 170 175 208 217 217 207 201 208 210 206 206 204 206 204 205 214 258 275 211 184 191 186 160 129 119 120 117 128 127 129 134 123 138 151 172 143 128 179 176 201 188 184 198 200 188 184 180 175 175 185 196 198 202
202 202 198 196 199 200 197 196 195 192 193 194 194 195 195 200 205 206 209 208 205 206 204 204 201 194 191 185 179 191 204 204 213 213 203 185 174 239 209 205 205 200 205 207 205 205 202 202 199 208 221 269 279 188 172 187 133 133 120 101 115 119 124 131 132 144 135 136 163 218 123 124 131 176 205 182 187 198 197 197 193 195 196 189 190 193 198 202
201 200 196 195 198 198 196 196 194 191 192 193 195 194 194 201 203 205 208 201 196 198 195 196 193 185 180 178 185 187 178 189 203 191 189 190 201 256 210 201 206 201 201 204 208 203 198 207 206 208 213 248 269 158 158 168 136 138 128 101 124 122 127 149 140 160 167 148 166 125 96 175 190 193 193 178 183 188 189 199 196 197 197 191 194 197 201 201
200 197 194 195 196 195 195 195 193 190 189 191 194 193 193 199 200 204 204 195 190 188 185 185 179 172 169 178 191 182 171 175 174 173 184 199 212 245 220 203 206 199 194 202 216 205 199 211 205 206 223 259 291 153 153 153 148 156 141 116 141 134 174 165 141 164 165 151 168 137 52 241 205 170 166 167 172 166 169 187 193 196 192 186 190 200 208 205
197 193 192 193 194 193 193 193 190 187 187 189 192 190 190 194 199 203 198 192 188 182 181 177 165 163 167 175 181 177 178 173 166 174 192 210 213 229 223 205 206 199 190 198 215 206 202 206 198 206 233 264 281 197 125 143 156 175 151 131 144 143 184 159 148 169 149 157 174 146 276 258 135 141 157 167 173 168 174 187 188 191 190 191 193 199 211 213
193 191 190 192 192 190 190 191 187 185 186 188 187 186 187 192 199 200 191 186 184 178 173 169 162 161 166 169 177 177 180 176 171 176 196 218 220 225 219 203 206 200 192 195 201 204 206 205 200 210 235 241 249 229 136 147 180 189 165 159 169 148 153 151 177 185 158 163 184 170 234 239 104 139 166 176 180 180 191 193 185 186 190 196 201 203 210 215
190 188 189 190 189 187 187 186 184 184 184 182 181 182 184 189 195 193 184 174 176 175 166 166 165 160 160 162 177 180 179 178 175 175 192 217 226 226 213 201 204 199 195 198 195 195 203 202 199 207 222 214 218 213 153 148 214 205 168 161 180 163 154 186 240 216 183 140 190 218 238 186 124 166 180 184 185 186 201 198 183 183 188 194 202 209 211 213
187 186 188 188 186 185 183 182 182 179 177 177 175 175 178 186 189 182 169 163 168 170 160 164 166 157 183 182 169 181 184 180 175 174 184 207 220 218 205 196 198 199 198 202 203 191 188 190 187 195 216 217 206 207 169 171 205 193 167 176 186 169 152 160 261 233 208 170 196 217 249 237 151 166 183 182 180 187 205 204 193 191 189 191 196 202 208 211
184 185 187 186 184 182 180 180 177 173 172 172 169 170 178 184 177 164 159 157 155 153 144 159 166 157 237 198 181 185 187 183 173 170 176 196 210 205 196 193 191 192 187 194 204 195 186 179 173 181 201 211 214 210 188 176 177 159 171 180 168 174 162 157 160 184 189 219 210 187 228 252 184 165 183 179 173 184 202 203 202 202 194 194 195 196 201 208
182 184 186 184 181 179 179 178 175 172 167 166 165 165 165 160 152 151 157 157 151 148 150 178 177 179 247 186 184 185 187 185 174 170 175 188 199 191 187 188 183 177 167 173 200 194 185 162 168 195 197 201 212 216 209 182 169 162 176 184 162 176 167 127 132 161 160 174 223 196 212 245 226 189 184 180 178 183 194 199 203 204 199 198 197 197 200 204
181 183 183 181 180 178 179 178 177 175 168 168 165 155 149 149 143 146 161 166 165 156 175 183 182 255 75 164 169 169 172 176 175 171 171 182 187 178 174 174 172 174 171 167 188 191 183 164 185 201 203 199 210 226 223 209 191 168 174 200 180 163 150 101 118 298 49 150 218 224 225 243 238 232 194 179 182 190 196 201 206 206 206 207 205 203 203 203
180 180 180 179 177 176 177 178 179 177 173 176 165 154 159 160 151 173 169 176 181 171 198 181 180 305 141 162 166 165 158 156 174 173 169 176 177 170 173 173 165 177 194 175 162 174 179 196 202 197 212 198 205 227 223 244 236 178 172 196 189 169 146 75 91 202 26 94 220 218 228 247 235 254 234 178 176 196 203 205 210 211 211 214 214 209 203 203
177 178 177 175 173 173 176 179 181 177 174 174 165 158 171 164 157 185 164 157 192 194 210 178 175 145 155 162 164 166 159 146 165 175 169 169 169 171 177 177 171 176 195 180 161 164 184 216 195 191 218 210 207 220 189 254 261 192 167 178 190 172 118 71 60 125 107 113 245 175 232 260 243 241 245 209 198 203 203 205 209 210 208 208 209 204 200 204
175 176 175 175 174 174 178 181 180 177 174 171 164 155 172 169 175 170 151 120 166 180 178 175 175 146 149 157 157 158 159 152 159 172 169 165 169 180 181 179 183 177 191 189 170 170 186 206 198 192 209 215 206 201 160 211 262 214 149 154 172 162 133 134 183 152 172 156 80 11 305 266 256 244 239 224 212 194 190 196 199 201 198 194 193 193 199 206
175 176 175 175 175 176 180 180 176 177 175 170 161 143 164 171 148 148 139 105 128 112 158 171 175 151 148 155 160 156 156 157 164 170 170 168 168 177 184 183 183 181 200 195 177 178 180 193 293 201 196 201 186 181 177 181 216 295 125 139 155 156 126 103 143 145 74 22 164 348 319 281 225 218 230 212 179 167 176 191 206 216 214 212 211 208 213 218
175 176 176 174 176 178 177 175 175 177 174 171 163 143 155 161 147 146 134 104 128 103 152 167 176 168 152 155 163 155 144 149 164 171 170 171 168 164 182 189 185 191 202 195 180 176 189 239 327 180 180 182 164 178 193 175 175 183 354 172 147 141 109 107 132 128 92 261 242 128 359 291 233 201 203 172 147 166 169 190 210 223 227 227 229 228 230 233
175 175 176 176 176 175 171 171 176 175 173 174 163 143 152 155 148 146 131 103 163 139 151 168 174 180 173 163 159 142 137 154 168 173 172 172 173 166 174 187 181 197 191 187 189 164 160 288 292 184 175 173 171 194 197 176 170 169 241 305 119 123 116 129 150 141 126 214 266 108 158 265 292 216 180 157 162 168 163 196 194 189 207 218 218 222 229 235
174 175 175 176 176 173 169 171 175 172 174 174 158 148 155 155 151 147 129 73 207 148 146 168 169 179 178 167 162 147 144 160 159 175 175 172 178 174 176 181 154 233 191 158 192 245 100 107 254 182 156 158 170 196 209 185 171 188 272 322 110 122 131 146 155 155 153 142 32 358 152 198 301 285 166 145 154 165 178 211 187 169 182 191 198 214 222 229
174 174 173 176 176 172 170 171 172 172 174 168 153 154 156 155 158 153 130 170 167 137 143 159 159 172 167 164 169 159 142 153 146 181 180 174 177 175 185 187 159 114 15 141 185 286 56 151 174 146 136 156 170 234 263 181 144 241 270 287 126 129 138 147 142 135 101 82 26 272 162 139 269 267 153 130 156 192 198 200 182 169 176 179 188 209 218 224
173 173 173 174 172 169 172 174 171 171 171 162 153 156 157 158 160 144 138 188 142 123 152 149 142 157 158 161 169 145 143 155 139 171 179 179 174 173 193 177 150 96 43 73 140 341 354 155 46 123 144 159 139 3 316 55 111 205 230 34 81 97 110 128 128 111 76 66 225 230 175 149 266 250 188 156 200 217 203 183 167 165 169 176 184 192 207 218
172 172 171 171 168 165 172 173 170 168 165 159 155 157 158 159 155 143 197 194 131 134 149 143 148 158 156 154 160 155 151 142 123 152 171 183 171 168 146 147 134 97 54 51 78 97 317 59 31 43 120 147 129 74 346 45 124 147 150 78 65 51 45 55 74 87 78 268 243 260 37 102 267 259 190 185 236 218 179 155 149 156 163 173 179 176 184 198
171 171 171 170 166 162 163 166 169 168 162 158 155 156 157 154 165 183 174 153 126 133 140 140 151 161 163 158 160 169 153 98 138 149 163 178 172 167 145 140 122 94 74 61 71 69 58 52 38 45 11 169 131 78 13 44 121 121 120 111 81 32 28 32 10 58 105 237 254 309 346 52 229 257 218 205 261 307 149 158 157 155 161 167 166 162 166 174
171 171 171 168 163 159 164 168 168 165 161 158 155 156 156 147 197 213 148 143 150 165 168 160 157 163 169 163 156 162 144 127 158 156 158 166 171 178 169 165 153 140 154 153 123 85 74 59 104 75 288 230 146 93 37 4 4 117 138 127 102 78 60 68 257 177 188 243 267 297 325 295 232 244 247 225 210 34 92 151 160 157 158 162 164 163 162 162
171 170 166 164 161 161 172 171 164 163 163 159 156 157 157 161 189 191 156 159 167 163 164 162 158 160 165 160 153 157 140 142 168 162 160 165 165 185 197 186 172 174 173 149 129 116 85 26 158 89 297 236 201 123 137 232 273 176 154 139 130 135 137 177 188 190 216 255 286 287 294 271 260 264 267 246 142 92 92 130 152 157 158 161 165 168 164 162
169 166 162 163 164 167 175 171 165 165 162 158 157 161 162 175 189 178 167 174 159 153 155 152 149 154 165 163 153 158 138 146 170 159 157 168 169 187 202 188 187 188 143 136 155 161 142 197 196 132 165 197 183 134 155 154 171 193 168 142 148 156 159 175 171 170 185 216 316 300 266 196 209 244 258 77 89 91 97 120 137 145 155 160 161 166 166 166
165 163 162 162 167 172 173 170 168 165 161 159 158 167 173 182 185 175 170 160 148 148 147 146 147 154 168 160 153 164 150 158 177 166 164 175 178 184 189 186 192 187 148 153 178 166 156 174 269 290 300 133 129 314 355 123 163 231 137 113 175 188 144 134 163 169 153 114 311 231 241 219 196 158 126 99 89 96 110 124 131 139 153 158 157 160 165 169
161 161 163 164 170 173 170 170 169 163 162 162 159 176 190 189 172 174 163 146 151 150 143 146 155 161 162 151 159 172 132 147 174 176 170 178 183 183 187 185 187 191 172 156 151 151 152 144 329 319 350 26 86 317 357 116 188 205 118 160 208 163 112 114 182 33 112 136 214 190 259 280 276 59 161 123 102 110 135 141 143 150 159 158 155 159 167 172
161 164 167 170 171 170 169 169 165 163 166 172 177 180 188 174 175 174 145 137 147 149 145 150 168 171 162 159 170 171 145 143 173 179 168 180 190 184 189 187 182 191 186 145 153 202 145 105 335 351 45 3 336 347 44 61 77 110 149 198 186 73 67 117 132 25 85 212 225 171 209 246 219 225 231 158 155 183 183 171 159 160 165 162 159 165 173 175
162 164 169 176 173 168 169 167 163 166 171 184 187 183 165 153 244 164 140 137 146 152 156 158 171 181 169 162 167 167 158 158 180 182 166 178 193 181 184 186 183 188 179 129 144 172 119 103 341 344 16 285 332 60 140 29 34 117 190 219 122 94 282 168 164 160 157 200 249 236 219 220 208 201 200 198 201 199 190 185 170 168 174 169 164 171 178 178
160 158 165 179 175 167 168 164 163 170 177 191 190 187 144 133 331 141 141 141 147 159 167 163 163 173 170 163 157 162 168 167 169 169 166 180 199 186 181 169 178 187 174 139 153 144 105 117 197 313 315 266 347 85 179 198 4 91 3 25 80 141 175 175 190 177 151 178 228 271 243 242 240 204 184 197 204 189 181 189 182 177 180 174 171 178 182 180
157 144 156 177 173 166 165 161 163 175 189 193 181 161 131 131 359 132 142 147 153 166 172 167 163 159 161 163 155 160 173 163 163 170 175 169 159 208 191 161 161 176 153 115 133 135 92 101 137 273 323 293 197 225 189 174 172 168 139 154 172 160 130 136 247 174 131 165 208 217 247 260 255 212 186 196 197 186 181 184 181 179 180 178 179 184 183 179
148 121 152 172 169 162 160 158 168 186 191 187 173 149 143 139 132 83 132 145 144 128 156 159 162 158 156 160 159 165 165 150 166 175 160 168 166 248 215 173 156 155 125 96 119 139 96 94 125 143 181 176 187 324 17 135 165 166 168 181 178 153 126 121 264 251 122 154 184 173 240 270 260 348 346 196 189 186 181 176 176 177 178 180 184 187 183 179
140 108 149 166 165 159 158 160 183 188 188 174 147 118 137 138 137 141 118 131 127 87 101 146 155 155 153 156 156 163 156 144 175 177 158 180 179 179 196 169 156 153 144 123 129 139 101 92 108 123 162 169 132 6 57 74 150 140 212 206 164 162 164 154 202 233 181 158 124 139 254 275 263 1 12 358 341 193 180 175 173 175 178 181 184 186 184 181
123 111 143 162 162 159 162 172 174 182 198 147 115 99 134 136 133 159 155 122 120 103 101 128 152 155 154 143 143 155 152 139 181 176 140 154 168 184 177 159 155 155 151 138 144 152 117 97 108 95 47 12 353 21 75 7 49 166 248 215 170 185 187 163 175 173 154 172 140 147 255 268 278 358 10 345 347 140 175 174 171 172 176 181 184 185 184 184
115 111 136 160 163 162 172 184 172 181 181 145 120 103 120 88 114 159 166 138 130 145 132 117 150 153 139 131 147 162 162 153 197 183 129 137 163 308 160 158 160 160 160 170 175 172 163 127 122 114 93 31 352 332 314 298 220 217 234 192 149 109 113 116 145 86 130 209 171 161 236 257 281 343 359 348 1 55 162 171 172 172 175 180 183 185 186 187
119 106 127 159 168 176 204 233 179 180 167 146 140 143 122 67 83 135 134 121 70 102 124 107 131 127 109 125 138 161 165 144 162 167 118 99 156 338 163 167 169 164 157 172 167 158 160 161 142 139 159 179 194 206 210 201 186 227 246 176 171 156 144 152 173 152 224 223 175 173 230 260 300 332 342 335 16 105 155 169 175 177 179 182 184 187 190 191
130 108 126 159 180 201 251 302 213 176 167 155 150 154 142 120 86 61 91 104 34 72 97 95 119 108 113 140 134 157 174 95 61 160 145 124 148 333 234 173 173 154 130 152 156 146 133 197 175 177 190 195 204 207 172 130 138 185 201 195 193 192 181 160 137 182 209 208 196 214 228 250 281 270 253 252 208 197 187 171 173 178 182 185 188 190 192 193
140 151 142 155 187 210 243 269 227 180 170 166 160 160 151 136 131 70 50 66 152 119 73 45 137 138 153 158 144 164 174 117 84 157 149 130 115 52 94 130 143 139 128 145 154 141 94 213 198 200 208 208 207 199 166 150 172 195 198 198 197 193 184 169 189 215 200 172 231 239 226 237 242 205 215 233 208 202 207 184 180 184 187 188 189 191 193 194
134 115 162 163 172 199 208 217 211 183 164 166 163 154 152 144 150 157 63 54 145 153 84 57 184 177 167 163 153 158 162 127 109 155 140 126 123 103 83 32 64 136 126 144 156 137 118 200 209 206 219 227 192 162 166 171 187 197 195 199 197 187 181 188 213 224 199 178 232 234 216 228 237 207 210 218 196 195 202 195 190 189 188 189 189 191 193 195
118 77 145 161 160 178 156 146 196 185 164 166 167 162 164 162 161 158 109 93 136 215 175 158 188 184 169 166 155 149 164 165 169 179 151 132 142 132 114 64 59 143 75 139 155 111 118 198 205 187 218 239 172 118 156 175 190 204 200 197 190 186 191 199 214 225 217 213 235 239 233 244 241 203 212 220 207 204 201 194 192 190 189 190 190 192 195 197
115 88 140 148 85 136 147 136 174 187 165 166 174 175 172 170 165 149 115 139 164 190 193 161 170 173 166 168 166 171 188 183 173 172 147 127 148 165 149 156 148 80 54 121 109 42 116 216 190 151 207 247 157 92 66 110 156 203 206 190 179 183 198 208 218 227 225 228 244 255 265 270 248 203 218 224 201 192 185 185 192 195 193 191 191 195 199 201
101 103 134 143 72 113 157 160 180 177 168 176 181 175 173 175 167 144 97 58 124 164 181 157 147 146 145 168 182 187 182 176 166 165 158 152 168 176 171 151 140 127 108 134 108 84 121 258 26 114 177 237 225 127 114 73 60 15 254 193 178 182 197 208 216 219 211 216 238 249 255 259 247 198 208 207 175 170 178 185 193 197 195 195 196 199 203 204
93 96 115 130 90 350 165 165 182 184 172 178 176 170 176 175 158 141 124 47 48 102 160 156 141 127 137 171 178 136 125 123 141 161 160 153 155 157 153 154 153 152 155 151 147 140 139 139 70 142 179 241 328 109 126 86 58 270 244 204 189 192 200 206 219 223 212 205 215 226 233 244 236 171 189 210 173 175 189 192 196 199 198 201 205 206 208 209
Height
1416 1420 1424 1428 1431 1434 1436 1439 1442 1444 1446 1451 1455 1458 1462 1464 1467 1470 1473 1475 1479 1482 1486 1488 1491 1494 1496 1499 1501 1503 1506 1508 1509 1510 1509 1512 1518 1521 1522 1525 1526 1527 1528 1528 1528 1528 1528 1528 1529 1530 1530 1531 1532 1532 1532 1532 1532 1533 1534 1537 1539 1535 1531 1528 1528 1529 1531 1534 1536 1536 1537 1538 1541 1542 1543 1544 1546 1547 1548 1549 1550 1551 1552 1553 1554 1555 1556 1558
1414 1418 1421 1425 1428 1431 1434 1437 1440 1442 1444 1448 1453 1457 1460 1463 1466 1469 1471 1474 1477 1480 1484 1487 1490 1492 1495 1497 1499 1503 1505 1507 1507 1506 1507 1513 1518 1519 1521 1524 1525 1526 1528 1528 1527 1528 1528 1529 1529 1530 1530 1531 1531 1531 1531 1531 1531 1532 1533 1536 1535 1531 1528 1525 1525 1527 1529 1533 1535 1535 1537 1538 1539 1541 1543 1544 1546 1547 1548 1550 1550 1551 1552 1554 1554 1555 1556 1557
1412 1416 1419 1423 1426 1429 1432 1435 1438 1441 1443 1446 1451 1455 1459 1462 1464 1467 1470 1472 1475 1479 1482 1485 1488 1491 1494 1496 1499 1502 1505 1507 1505 1502 1506 1514 1516 1517 1520 1522 1524 1526 1527 1527 1527 1527 1528 1529 1530 1530 1530 1530 1530 1531 1531 1530 1530 1530 1532 1535 1532 1527 1526 1525 1525 1527 1529 1532 1533 1536 1537 1537 1539 1541 1542 1543 1545 1546 1547 1548 1550 1550 1551 1553 1553 1554 1556 1557
1409 1413 1417 1420 1424 1427 1430 1433 1437 1440 1442 1444 1449 1454 1457 1460 1463 1466 1468 1471 1474 1477 1480 1483 1486 1489 1492 1495 1498 1501 1505 1508 1501 1498 1507 1512 1513 1516 1518 1521 1524 1525 1526 1526 1526 1526 1528 1529 1530 1530 1530 1530 1529 1530 1530 1529 1529 1529 1530 1532 1529 1525 1527 1528 1527 1528 1530 1532 1533 1536 1537 1539 1540 1541 1542 1542 1545 1547 1546 1546 1547 1548 1549 1551 1552 1553 1555 1556
1407 1410 1415 1418 1422 1425 1428 1432 1435 1438 1441 1443 1447 1452 1455 1459 1462 1465 1467 1469 1472 1475 1478 1481 1484 1487 1490 1494 1498 1500 1507 1508 1497 1498 1508 1510 1512 1515 1516 1520 1523 1524 1525 1525 1525 1525 1527 1528 1529 1529 1530 1529 1528 1529 1528 1527 1527 1528 1529 1529 1527 1525 1528 1530 1528 1529 1530 1532 1534 1536 1538 1539 1540 1541 1541 1541 1544 1546 1545 1545 1546 1545 1547 1549 1551 1552 1554 1555
1404 1408 1412 1416 1420 1423 1427 1430 1433 1437 1439 1442 1446 1451 1454 1457 1461 1464 1466 1468 1471 1473 1476 1480 1483 1486 1489 1493 1497 1499 1503 1502 1495 1498 1506 1507 1510 1513 1516 1520 1521 1523 1524 1524 1524 1524 1526 1526 1528 1528 1529 1529 1527 1526 1526 1527 1526 1528 1528 1527 1527 1526 1527 1530 1529 1530 1531 1532 1535 1536 1538 1539 1540 1541 1541 1542 1544 1545 1545 1546 1545 1545 1547 1549 1550 1552 1554 1555
1401 1405 1409 1414 1417 1421 1425 1429 1432 1435 1438 1441 1445 1449 1453 1456 1460 1462 1465 1467 1470 1472 1474 1478 1482 1484 1487 1491 1495 1498 1497 1496 1495 1497 1502 1506 1509 1512 1515 1518 1519 1522 1522 1523 1523 1524 1525 1525 1526 1527 1527 1528 1526 1525 1524 1525 1525 1527 1527 1527 1528 1527 1527 1529 1530 1531 1532 1533 1535 1536 1538 1539 1539 1540 1541 1542 1543 1544 1545 1546 1546 1546 1548 1550 1551 1552 1553 1554
1398 1403 1407 1411 1415 1419 1423 1427 1430 1433 1436 1439 1444 1448 1452 1455 1458 1462 1464 1467 1469 1471 1473 1476 1479 1482 1486 1489 1493 1496 1494 1494 1497 1497 1500 1504 1507 1511 1514 1516 1517 1520 1520 1521 1521 1523 1524 1524 1525 1525 1526 1527 1525 1523 1522 1524 1525 1526 1526 1526 1527 1528 1528 1529 1530 1532 1532 1533 1535 1536 1538 1539 1539 1539 1540 1541 1542 1544 1545 1546 1546 1547 1548 1549 1551 1552 1553 1554
1395 1400 1404 1408 1413 1417 1421 1425 1428 1432 1435 1438 1442 1447 1450 1454 1457 1460 1463 1466 1467 1469 1472 1474 1477 1482 1486 1488 1491 1493 1489 1491 1496 1498 1500 1503 1507 1510 1512 1514 1515 1517 1519 1519 1520 1522 1523 1523 1524 1524 1525 1525 1523 1522 1521 1523 1525 1524 1524 1525 1526 1528 1529 1530 1531 1532 1533 1533 1535 1537 1538 1539 1539 1539 1539 1540 1541 1543 1544 1546 1546 1547 1548 1549 1550 1551 1552 1554
1392 1397 1401 1406 1410 1415 1419 1423 1426 1430 1434 1437 1441 1445 1449 1453 1457 1459 1462 1465 1466 1468 1471 1472 1476 1481 1485 1487 1490 1491 1488 1492 1496 1498 1501 1503 1506 1508 1510 1512 1513 1515 1517 1518 1519 1521 1522 1522 1523 1523 1524 1523 1521 1521 1521 1523 1523 1522 1524 1525 1526 1528 1529 1530 1531 1532 1533 1534 1535 1537 1539 1539 1539 1540 1539 1539 1540 1542 1543 1544 1546 1547 1548 1549 1550 1551 1552 1553
1388 1394 1399 1403 1408 1413 1417 1421 1425 1429 1432 1435 1439 1444 1448 1453 1456 1459 1461 1464 1465 1467 1469 1472 1476 1479 1483 1486 1488 1488 1488 1492 1494 1497 1501 1503 1505 1507 1509 1511 1513 1514 1516 1517 1518 1519 1521 1522 1522 1524 1524 1522 1520 1519 1520 1522 1521 1521 1523 1525 1527 1529 1530 1531 1531 1533 1533 1534 1536 1536 1538 1539 1540 1540 1538 1537 1538 1540 1542 1543 1544 1546 1547 1548 1549 1550 1551 1552
1385 1391 1396 1401 1406 1411 1416 1420 1424 1428 1431 1434 1439 1443 1448 1452 1455 1458 1461 1463 1464 1466 1469 1471 1475 1479 1483 1486 1487 1487 1489 1491 1493 1496 1500 1502 1505 1507 1509 1510 1512 1513 1515 1517 1517 1518 1520 1521 1522 1523 1522 1522 1521 1519 1520 1521 1521 1521 1521 1526 1530 1529 1530 1531 1531 1532 1533 1534 1535 1536 1540 1540 1538 1537 1535 1536 1538 1539 1541 1542 1543 1544 1545 1547 1548 1549 1550 1551
1383 1388 1393 1398 1404 1409 1414 1419 1423 1426 1429 1433 1438 1442 1447 1451 1454 1457 1460 1462 1464 1466 1469 1471 1474 1478 1482 1484 1485 1487 1489 1490 1492 1495 1499 1502 1505 1506 1508 1509 1511 1512 1514 1516 1516 1517 1519 1520 1520 1521 1521 1522 1521 1520 1520 1520 1521 1522 1521 1525 1530 1532 1533 1531 1531 1532 1532 1535 1534 1536 1543 1538 1533 1534 1534 1535 1537 1538 1540 1541 1541 1543 1544 1545 1546 1547 1548 1550
1380 1385 1391 1397 1402 1407 1412 1417 1421 1425 1428 1432 1436 1441 1446 1450 1454 1457 1460 1462 1464 1466 1469 1472 1475 1478 1480 1482 1484 1487 1488 1490 1492 1495 1497 1500 1504 1506 1507 1508 1509 1511 1512 1513 1515 1516 1517 1519 1520 1520 1521 1522 1521 1520 1520 1520 1521 1522 1522 1525 1529 1535 1535 1530 1530 1532 1533 1536 1534 1537 1544 1537 1531 1534 1535 1535 1536 1537 1539 1540 1540 1541 1542 1543 1544 1545 1547 1548
1377 1382 1388 1395 1400 1406 1411 1415 1419 1423 1427 1431 1435 1440 1444 1450 1454 1457 1460 1462 1465 1467 1469 1472 1475 1478 1479 1482 1484 1486 1487 1489 1491 1495 1497 1499 1502 1504 1505 1507 1509 1510 1512 1512 1513 1515 1516 1518 1519 1520 1520 1521 1521 1522 1521 1522 1522 1520 1526 1530 1529 1533 1536 1532 1531 1531 1532 1535 1534 1537 1542 1537 1534 1534 1534 1535 1536 1537 1538 1539 1539 1540 1540 1541 1542 1544 1545 1546
1374 1380 1386 1393 1399 1404 1409 1414 1418 1421 1425 1429 1434 1439 1444 1450 1454 1457 1460 1462 1466 1470 1471 1473 1476 1477 1479 1480 1482 1485 1486 1487 1489 1493 1497 1498 1501 1503 1504 1506 1508 1509 1511 1512 1513 1514 1516 1517 1518 1519 1520 1520 1521 1521 1522 1526 1525 1520 1524 1531 1529 1531 1537 1535 1532 1531 1531 1533 1534 1536 1538 1536 1535 1534 1534 1534 1535 1536 1537 1538 1538 1539 1539 1540 1541 1542 1544 1545
1372 1378 1385 1391 1397 1402 1407 1412 1416 1419 1424 1428 1433 1438 1444 1450 1454 1458 1461 1464 1467 1470 1471 1474 1477 1479 1479 1479 1480 1481 1483 1485 1488 1491 1495 1498 1500 1502 1504 1505 1506 1508 1510 1511 1513 1514 1515 1516 1517 1518 1518 1519 1519 1520 1526 1532 1531 1524 1523 1527 1526 1527 1534 1536 1534 1532 1531 1532 1534 1535 1536 1534 1533 1533 1533 1534 1534 1536 1536 1536 1537 1538 1539 1539 1540 1541 1542 1543
1370 1376 1383 1390 1395 1400 1405 1410 1414 1418 1422 1427 1432 1437 1444 1451 1455 1459 1461 1464 1468 1473 1476 1478 1480 1480 1477 1475 1476 1478 1480 1484 1487 1489 1494 1497 1500 1502 1503 1504 1505 1508 1509 1511 1512 1513 1515 1515 1515 1518 1518 1519 1518 1518 1527 1531 1527 1526 1526 1527 1526 1525 1528 1532 1533 1531 1530 1532 1533 1535 1536 1533 1532 1532 1532 1532 1533 1534 1535 1535 1536 1536 1537 1538 1539 1540 1541 1541
1369 1375 1382 1388 1394 1398 1403 1408 1412 1415 1420 1425 1431 1438 1446 1453 1457 1460 1461 1462 1464 1468 1471 1471 1471 1470 1467 1467 1472 1475 1478 1483 1486 1488 1492 1495 1499 1501 1503 1505 1505 1507 1509 1510 1511 1511 1512 1514 1516 1518 1518 1517 1516 1515 1519 1519 1517 1521 1524 1524 1526 1526 1527 1530 1531 1530 1530 1533 1533 1533 1535 1532 1531 1531 1531 1531 1531 1532 1533 1534 1535 1535 1536 1537 1538 1538 1539 1540
1367 1374 1380 1387 1392 1396 1401 1405 1409 1413 1416 1421 1427 1435 1444 1448 1454 1459 1460 1460 1456 1456 1458 1459 1462 1463 1460 1463 1469 1473 1477 1483 1486 1487 1491 1494 1498 1500 1502 1504 1505 1506 1507 1508 1510 1510 1510 1514 1517 1516 1515 1514 1514 1513 1513 1511 1512 1516 1519 1522 1524 1525 1529 1530 1531 1531 1530 1533 1533 1531 1532 1531 1529 1528 1527 1528 1530 1531 1532 1532 1533 1534 1535 1536 1536 1537 1538 1539
1366 1373 1379 1385 1389 1393 1399 1403 1407 1411 1414 1418 1422 1427 1430 1432 1438 1442 1446 1455 1456 1455 1457 1459 1463 1464 1462 1463 1467 1470 1475 1481 1486 1487 1489 1493 1496 1499 1501 1502 1504 1506 1506 1506 1508 1508 1510 1514 1514 1512 1511 1511 1512 1512 1510 1510 1510 1512 1517 1521 1522 1523 1529 1531 1530 1531 1531 1532 1532 1529 1530 1530 1527 1527 1525 1526 1528 1529 1529 1530 1531 1532 1533 1534 1534 1536 1537 1537
1366 1372 1378 1383 1388 1392 1397 1402 1406 1411 1415 1419 1421 1422 1423 1424 1426 1426 1433 1448 1456 1457 1458 1460 1464 1464 1463 1465 1467 1469 1473 1478 1484 1487 1488 1492 1495 1498 1499 1500 1502 1504 1504 1504 1507 1510 1512 1512 1510 1509 1509 1509 1510 1510 1509 1510 1509 1510 1514 1519 1522 1523 1528 1533 1532 1531 1531 1532 1531 1530 1532 1530 1526 1525 1524 1524 1525 1525 1526 1527 1528 1529 1530 1532 1532 1533 1535 1536
1365 1370 1376 1381 1386 1392 1397 1402 1407 1410 1413 1416 1418 1421 1425 1427 1427 1429 1436 1447 1454 1457 1458 1460 1463 1463 1463 1466 1467 1469 1472 1475 1480 1484 1486 1490 1493 1496 1497 1498 1500 1502 1502 1502 1506 1512 1514 1510 1506 1506 1507 1507 1508 1509 1509 1511 1510 1510 1512 1517 1522 1523 1525 1532 1534 1533 1532 1533 1534 1533 1533 1530 1526 1524 1522 1522 1522 1522 1524 1525 1526 1527 1528 1529 1530 1531 1532 1533
1363 1368 1375 1379 1385 1391 1396 1402 1407 1410 1411 1414 1417 1420 1425 1429 1430 1433 1439 1446 1453 1456 1457 1460 1462 1462 1463 1465 1467 1469 1472 1474 1477 1481 1485 1488 1491 1495 1496 1496 1498 1500 1500 1499 1502 1509 1510 1507 1504 1504 1505 1506 1507 1509 1509 1512 1514 1512 1512 1515 1520 1522 1521 1525 1531 1533 1533 1534 1534 1533 1535 1530 1523 1523 1521 1519 1520 1520 1521 1523 1524 1525 1526 1527 1528 1529 1531 1531
1361 1367 1372 1378 1385 1390 1396 1402 1404 1407 1411 1415 1417 1418 1424 1429 1430 1433 1438 1445 1455 1458 1458 1461 1462 1462 1463 1465 1468 1470 1472 1474 1477 1480 1483 1486 1490 1493 1494 1495 1497 1498 1498 1497 1500 1505 1506 1505 1505 1504 1504 1505 1507 1510 1509 1512 1516 1516 1515 1513 1515 1519 1522 1525 1530 1532 1537 1539 1533 1533 1541 1532 1516 1516 1519 1518 1520 1520 1520 1522 1522 1524 1524 1526 1527 1527 1529 1529
1360 1365 1370 1376 1382 1388 1395 1399 1401 1406 1411 1414 1414 1417 1423 1426 1430 1433 1435 1447 1457 1457 1458 1458 1459 1461 1463 1465 1468 1470 1474 1476 1478 1479 1482 1486 1488 1490 1493 1494 1494 1495 1495 1496 1498 1503 1505 1506 1505 1504 1504 1505 1508 1510 1509 1510 1516 1519 1517 1512 1512 1517 1522 1527 1529 1531 1537 1539 1533 1532 1541 1535 1519 1513 1515 1517 1519 1519 1520 1521 1521 1523 1523 1524 1525 1525 1526 1527
1358 1363 1368 1374 1379 1383 1388 1391 1398 1404 1407 1410 1412 1417 1422 1424 1430 1430 1437 1457 1461 1453 1455 1457 1457 1459 1461 1465 1467 1470 1474 1475 1477 1480 1481 1485 1487 1488 1491 1492 1493 1494 1492 1495 1502 1505 1505 1506 1506 1503 1504 1507 1509 1511 1508 1507 1515 1519 1517 1514 1514 1517 1522 1525 1527 1529 1534 1535 1534 1533 1535 1539 1532 1519 1514 1515 1518 1520 1521 1521 1521 1521 1523 1523 1524 1524 1524 1525
1357 1362 1367 1372 1377 1382 1385 1386 1392 1397 1401 1406 1410 1416 1420 1423 1430 1428 1440 1465 1460 1446 1451 1455 1456 1458 1460 1464 1467 1468 1470 1470 1476 1482 1481 1484 1486 1487 1489 1490 1492 1494 1491 1495 1505 1507 1504 1506 1506 1503 1505 1509 1510 1511 1509 1508 1514 1519 1517 1515 1514 1517 1520 1522 1525 1529 1531 1533 1539 1537 1533 1541 1539 1521 1515 1516 1518 1520 1519 1519 1520 1520 1521 1522 1522 1523 1523 1523
1357 1362 1367 1373 1380 1386 1389 1388 1390 1394 1401 1406 1410 1416 1419 1424 1429 1428 1440 1456 1449 1442 1447 1452 1456 1459 1460 1464 1467 1467 1468 1469 1473 1478 1481 1484 1485 1486 1487 1488 1489 1493 1494 1495 1502 1507 1507 1507 1506 1504 1506 1509 1511 1513 1511 1509 1513 1516 1517 1515 1514 1517 1519 1522 1526 1528 1531 1536 1541 1538 1533 1540 1537 1521 1518 1520 1518 1518 1516 1516 1518 1518 1520 1521 1521 1522 1522 1522
1356 1362 1367 1373 1380 1385 1388 1391 1394 1397 1402 1407 1411 1416 1420 1425 1428 1435 1448 1447 1439 1443 1447 1450 1455 1456 1459 1463 1467 1468 1468 1470 1471 1475 1482 1484 1485 1486 1486 1487 1489 1493 1496 1498 1503 1508 1507 1506 1507 1506 1508 1509 1511 1513 1512 1511 1512 1514 1516 1517 1519 1522 1521 1524 1526 1527 1537 1543 1542 1540 1536 1539 1539 1522 1515 1519 1515 1511 1511 1514 1517 1518 1519 1520 1520 1521 1521 1521
1356 1362 1367 1372 1378 1381 1384 1389 1394 1397 1402 1406 1412 1417 1422 1426 1427 1439 1447 1435 1433 1445 1447 1449 1453 1454 1456 1460 1464 1467 1467 1470 1470 1473 1480 1483 1484 1485 1484 1488 1490 1495 1501 1502 1506 1509 1507 1508 1509 1509 1510 1510 1510 1512 1513 1512 1512 1513 1516 1519 1526 1530 1529 1532 1532 1533 1544 1547 1542 1545 1541 1541 1543 1524 1510 1512 1510 1507 1508 1511 1515 1517 1518 1519 1520 1521 1521 1521
1357 1362 1368 1374 1379 1382 1383 1386 1390 1396 1402 1405 1411 1415 1420 1429 1433 1435 1435 1428 1433 1443 1443 1444 1448 1450 1454 1456 1461 1464 1465 1470 1471 1471 1476 1479 1484 1483 1482 1485 1487 1496 1505 1504 1507 1510 1510 1510 1510 1510 1511 1509 1509 1513 1517 1516 1514 1514 1517 1521 1530 1540 1543 1546 1545 1544 1547 1547 1544 1546 1543 1542 1538 1520 1509 1509 1508 1507 1507 1508 1512 1514 1516 1518 1519 1520 1520 1521
1358 1364 1371 1377 1381 1383 1385 1388 1391 1396 1400 1404 1411 1413 1416 1430 1433 1425 1424 1427 1429 1432 1434 1438 1442 1446 1452 1456 1461 1463 1464 1469 1470 1471 1474 1477 1482 1483 1481 1481 1481 1488 1498 1502 1507 1511 1513 1513 1511 1511 1511 1509 1508 1512 1519 1519 1516 1516 1517 1521 1529 1541 1551 1554 1550 1546 1546 1547 1546 1546 1544 1541 1531 1516 1509 1509 1508 1508 1507 1508 1511 1512 1514 1517 1517 1518 1519 1520
1360 1366 1372 1377 1380 1382 1385 1388 1391 1394 1399 1404 1409 1412 1418 1428 1424 1416 1421 1424 1422 1424 1429 1434 1440 1447 1451 1454 1459 1460 1463 1469 1467 1469 1474 1477 1482 1483 1481 1480 1479 1480 1488 1498 1503 1505 1512 1515 1511 1511 1510 1508 1509 1510 1512 1514 1514 1514 1512 1515 1522 1529 1538 1543 1542 1540 1544 1549 1549 1548 1543 1534 1524 1515 1510 1509 1509 1509 1508 1509 1511 1512 1514 1515 1516 1517 1518 1519
1363 1368 1372 1375 1379 1381 1383 1388 1391 1394 1399 1402 1406 1412 1418 1419 1414 1412 1418 1418 1418 1424 1428 1432 1439 1447 1451 1453 1456 1456 1459 1466 1467 1468 1473 1474 1477 1479 1478 1478 1478 1477 1483 1494 1497 1497 1504 1510 1510 1510 1509 1507 1509 1510 1508 1510 1516 1514 1510 1514 1520 1518 1520 1533 1539 1535 1539 1547 1548 1547 1539 1523 1516 1513 1510 1511 1510 1509 1510 1511 1511 1513 1514 1515 1516 1517 1517 1518
1365 1370 1373 1376 1378 1380 1382 1387 1391 1395 1398 1399 1404 1411 1409 1405 1404 1406 1408 1410 1414 1420 1425 1435 1440 1445 1452 1455 1456 1456 1456 1460 1465 1468 1472 1472 1473 1475 1474 1474 1474 1475 1478 1485 1491 1492 1499 1510 1512 1511 1510 1509 1510 1510 1509 1511 1515 1514 1514 1518 1518 1514 1515 1528 1540 1537 1537 1540 1538 1537 1530 1519 1515 1513 1511 1512 1511 1511 1512 1511 1511 1513 1513 1514 1515 1516 1517 1518
1364 1369 1373 1375 1378 1380 1382 1386 1390 1395 1398 1398 1401 1403 1398 1398 1400 1401 1403 1406 1412 1415 1422 1434 1437 1438 1446 1452 1453 1454 1455 1459 1463 1465 1469 1471 1471 1469 1470 1470 1470 1472 1473 1476 1483 1486 1493 1511 1516 1510 1512 1511 1509 1511 1510 1510 1511 1513 1517 1516 1512 1515 1516 1518 1530 1538 1539 1538 1533 1529 1525 1518 1517 1516 1514 1513 1512 1512 1512 1511 1512 1513 1513 1514 1515 1516 1517 1517
1363 1368 1373 1375 1377 1379 1382 1387 1390 1394 1397 1398 1398 1396 1395 1398 1399 1398 1401 1404 1409 1414 1419 1427 1431 1432 1439 1447 1449 1450 1452 1457 1461 1462 1465 1468 1466 1463 1465 1468 1468 1470 1470 1472 1478 1480 1486 1506 1518 1513 1513 1513 1509 1510 1512 1511 1511 1511 1513 1512 1512 1520 1522 1520 1526 1535 1538 1537 1531 1526 1523 1519 1515 1513 1513 1513 1511 1511 1511 1510 1511 1511 1512 1513 1514 1515 1516 1517
1364 1369 1373 1375 1377 1380 1383 1387 1391 1394 1396 1396 1396 1396 1396 1398 1399 1398 1400 1403 1408 1414 1417 1421 1424 1429 1436 1441 1444 1448 1449 1452 1458 1460 1462 1464 1463 1460 1460 1463 1466 1469 1470 1470 1475 1478 1480 1497 1515 1516 1512 1513 1511 1511 1512 1512 1512 1511 1511 1512 1512 1516 1519 1519 1519 1522 1529 1533 1530 1527 1528 1521 1508 1502 1503 1505 1505 1506 1507 1508 1508 1509 1510 1511 1513 1514 1515 1517
1362 1366 1371 1374 1376 1380 1384 1389 1393 1395 1394 1391 1392 1395 1395 1397 1400 1399 1400 1402 1406 1411 1415 1417 1420 1426 1432 1436 1440 1445 1447 1450 1455 1457 1458 1460 1462 1461 1458 1460 1464 1467 1469 1470 1472 1478 1479 1488 1507 1517 1514 1514 1514 1512 1510 1510 1511 1513 1514 1515 1515 1514 1516 1518 1515 1513 1519 1526 1525 1527 1528 1516 1499 1494 1495 1495 1498 1500 1502 1504 1505 1507 1509 1510 1512 1513 1514 1516
1360 1364 1370 1373 1376 1380 1384 1390 1392 1391 1389 1388 1390 1394 1394 1396 1399 1401 1401 1401 1404 1408 1411 1414 1418 1423 1428 1433 1437 1440 1444 1449 1453 1453 1455 1457 1459 1461 1458 1457 1461 1464 1468 1472 1473 1477 1481 1487 1504 1518 1517 1514 1513 1510 1509 1508 1508 1510 1511 1511 1512 1513 1516 1521 1522 1515 1514 1519 1520 1523 1525 1509 1494 1495 1495 1492 1494 1496 1497 1501 1503 1505 1507 1509 1511 1512 1514 1515
1359 1363 1369 1373 1375 1379 1383 1387 1387 1386 1387 1389 1389 1392 1394 1395 1398 1401 1401 1401 1404 1407 1409 1412 1416 1421 1424 1428 1433 1437 1441 1447 1450 1449 1452 1453 1453 1456 1455 1455 1459 1462 1466 1472 1474 1475 1480 1490 1506 1516 1515 1513 1513 1512 1512 1512 1509 1509 1510 1508 1508 1510 1513 1518 1523 1518 1516 1520 1519 1521 1524 1509 1494 1496 1497 1494 1495 1494 1495 1499 1501 1503 1506 1507 1510 1512 1514 1515
1358 1362 1368 1372 1375 1379 1382 1385 1387 1388 1389 1388 1388 1391 1394 1394 1397 1400 1401 1402 1404 1407 1409 1412 1415 1419 1423 1425 1431 1436 1440 1446 1449 1447 1449 1452 1452 1453 1455 1455 1458 1461 1465 1470 1473 1475 1478 1488 1503 1513 1514 1512 1511 1511 1511 1512 1511 1509 1509 1507 1507 1508 1507 1510 1515 1513 1516 1521 1518 1523 1525 1507 1493 1497 1498 1496 1496 1494 1494 1497 1499 1503 1505 1507 1509 1511 1513 1515
1359 1363 1369 1374 1377 1379 1379 1379 1381 1385 1386 1386 1389 1393 1394 1394 1397 1399 1400 1402 1404 1406 1408 1412 1414 1417 1420 1423 1427 1432 1436 1443 1448 1448 1448 1450 1452 1454 1455 1455 1457 1460 1463 1465 1467 1471 1478 1484 1495 1510 1517 1516 1515 1515 1513 1512 1511 1508 1505 1505 1507 1506 1506 1510 1511 1512 1517 1518 1514 1522 1523 1504 1494 1498 1497 1496 1496 1494 1495 1497 1498 1501 1504 1506 1508 1510 1512 1513
1358 1365 1372 1377 1379 1379 1378 1376 1375 1379 1382 1385 1389 1392 1393 1396 1398 1398 1399 1402 1403 1404 1408 1412 1413 1415 1419 1422 1427 1431 1433 1438 1444 1448 1449 1450 1453 1456 1455 1455 1457 1458 1460 1462 1463 1467 1475 1480 1486 1498 1509 1511 1511 1510 1505 1504 1508 1508 1505 1504 1505 1505 1506 1508 1510 1515 1519 1515 1511 1515 1512 1499 1496 1498 1497 1497 1497 1496 1496 1498 1499 1501 1502 1504 1506 1508 1509 1511
1356 1363 1371 1378 1381 1380 1378 1376 1375 1378 1380 1383 1388 1391 1392 1397 1400 1399 1399 1403 1405 1405 1407 1412 1413 1415 1419 1422 1427 1432 1434 1436 1440 1444 1447 1450 1455 1457 1456 1456 1458 1458 1460 1462 1463 1467 1474 1477 1478 1482 1488 1490 1491 1490 1488 1491 1500 1504 1503 1502 1502 1503 1503 1504 1509 1513 1512 1512 1512 1508 1501 1497 1497 1497 1496 1497 1497 1497 1496 1497 1499 1500 1501 1502 1504 1505 1507 1509
1355 1360 1364 1370 1377 1379 1379 1377 1375 1375 1377 1381 1385 1388 1390 1396 1399 1400 1401 1403 1404 1405 1409 1412 1412 1415 1419 1422 1426 1431 1433 1436 1439 1441 1445 1450 1455 1458 1458 1457 1458 1459 1460 1462 1464 1467 1473 1477 1476 1476 1477 1477 1477 1478 1480 1485 1491 1494 1496 1498 1500 1502 1504 1505 1507 1505 1503 1510 1514 1504 1496 1498 1495 1493 1493 1494 1495 1497 1496 1496 1496 1497 1499 1501 1502 1505 1506 1508
1355 1359 1360 1361 1365 1369 1372 1373 1372 1373 1376 1380 1383 1386 1390 1395 1397 1399 1402 1404 1404 1405 1409 1413 1414 1413 1415 1418 1422 1429 1433 1437 1441 1441 1444 1450 1455 1457 1459 1460 1460 1460 1461 1463 1465 1467 1472 1476 1475 1475 1477 1476 1474 1475 1477 1481 1484 1486 1490 1494 1497 1501 1504 1504 1503 1498 1499 1507 1505 1495 1494 1495 1491 1490 1490 1490 1492 1493 1492 1493 1494 1495 1497 1500 1501 1504 1505 1506
1355 1358 1361 1362 1362 1363 1367 1371 1371 1373 1376 1379 1383 1385 1388 1393 1395 1397 1400 1404 1406 1406 1406 1411 1414 1413 1413 1415 1419 1425 1430 1434 1438 1440 1442 1447 1452 1454 1458 1461 1462 1462 1462 1463 1465 1467 1470 1474 1474 1475 1478 1478 1477 1478 1477 1479 1482 1484 1487 1490 1494 1499 1500 1500 1498 1495 1496 1499 1493 1489 1493 1492 1487 1488 1487 1486 1488 1489 1489 1492 1493 1494 1496 1498 1500 1502 1503 1505
1356 1358 1360 1363 1365 1366 1369 1373 1373 1375 1377 1379 1383 1384 1386 1390 1393 1395 1397 1401 1405 1406 1405 1407 1411 1412 1413 1415 1417 1421 1423 1423 1428 1434 1439 1445 1449 1450 1453 1456 1458 1462 1464 1464 1466 1468 1471 1474 1474 1476 1480 1481 1481 1481 1481 1482 1483 1483 1485 1487 1491 1496 1499 1499 1497 1493 1495 1498 1493 1492 1497 1492 1484 1484 1485 1484 1486 1487 1489 1491 1492 1492 1494 1495 1497 1499 1500 1502
1358 1359 1359 1362 1367 1369 1371 1373 1374 1375 1377 1379 1381 1383 1384 1387 1389 1393 1397 1399 1399 1402 1404 1405 1409 1412 1414 1416 1417 1419 1420 1420 1424 1428 1432 1436 1441 1443 1446 1449 1453 1461 1465 1465 1467 1469 1472 1477 1476 1477 1483 1484 1483 1485 1486 1485 1486 1487 1488 1487 1488 1492 1494 1493 1491 1489 1492 1496 1496 1498 1498 1488 1480 1482 1484 1483 1484 1486 1487 1488 1489 1491 1492 1493 1494 1495 1497 1498
1359 1360 1360 1362 1368 1372 1372 1373 1374 1376 1377 1377 1378 1380 1383 1385 1387 1391 1397 1400 1399 1400 1402 1404 1407 1412 1415 1417 1418 1419 1420 1421 1424 1427 1430 1433 1435 1439 1442 1445 1448 1454 1460 1464 1468 1468 1471 1477 1479 1480 1482 1485 1490 1491 1487 1487 1492 1492 1485 1481 1482 1484 1485 1486 1487 1486 1487 1489 1493 1494 1488 1478 1476 1481 1483 1483 1484 1484 1484 1484 1486 1488 1489 1490 1491 1492 1493 1494